Santa Barbara, CA

6:19 AM PDT on June 18, 2018 (GMT -0700)
Santa Barbara Municipal

Weather History for KSBA - August, 2004

Change the Weather History Date:

Monday, August 16, 2004

  Actual Average Record
Temperature  
Mean Temperature 63 °F 66 °F  
Max Temperature 73 °F 74 °F 84 °F (1962)
Min Temperature 55 °F 58 °F 50 °F (1986)
Degree Days  
Heating Degree Days 2 1  
Month to date heating degree days 16  
Since 1 June heating degree days 133  
Since 1 July heating degree days 43  
Cooling Degree Days 0 2  
Month to date cooling degree days 32  
Year to date cooling degree days 104  
Since 1 June cooling degree days 90  
Growing Degree Days 13 (Base 50)    
Moisture  
Dew Point 59 °F    
Average Humidity 84    
Maximum Humidity 94    
Minimum Humidity 66    
Precipitation  
Precipitation 0.00 in 0.00 in 0.00 in (2018)
Month to date precipitation 0.05  
Year to date precipitation 12.13  
Sea Level Pressure  
Sea Level Pressure 29.96 in    
Wind  
Wind Speed 3 mph (SE)    
Max Wind Speed 10 mph    
Max Gust Speed -    
Visibility 6 miles    
Events      
T = Trace of Precipitation, MM = Missing Value Source: NWS Daily Summary

Daily Weather History Graph

Daily Weather History Graph

Search for Another Location

Airport or City:

Astronomy

Aug. 16, 2004 Rise Set
Actual Time 6:21 AM PDT 7:45 PM PDT
Civil Twilight 5:54 AM PDT 8:11 PM PDT
Nautical Twilight 5:23 AM PDT 8:43 PM PDT
Astronomical Twilight 4:49 AM PDT 9:16 PM PDT
Moon 6:49 AM PDT (8/16) 8:33 PM PDT (8/16)
Length of Visible Light 14h 16m
Length of Day
13h 23m
New Moon, 1% of the Moon is Illuminated
Aug 16
New Moon
Aug 23
First Quarter
Aug 29
Full
Sep 6
Last Quarter
Sep 14
New

Hourly Weather History & Observations

Time (PDT) Temp. Dew Point Humidity Pressure Visibility Wind Dir Wind Speed Gust Speed Precip Events Conditions
12:53 AM 62.1 °F 59.0 °F 90% 29.94 in 7.0 mi East 4.6 mph - N/A   Clear
1:53 AM 61.0 °F 57.9 °F 90% 29.94 in 7.0 mi Calm Calm - N/A   Clear
2:53 AM 60.1 °F 57.9 °F 93% 29.95 in 6.0 mi Calm Calm - N/A   Clear
3:53 AM 57.9 °F 55.0 °F 90% 29.95 in 7.0 mi Calm Calm - N/A   Clear
4:53 AM 55.9 °F 54.0 °F 93% 29.94 in 8.0 mi Calm Calm - N/A   Clear
5:18 AM 55.4 °F 53.6 °F 94% 29.94 in 8.0 mi Calm Calm - N/A   Scattered Clouds
5:27 AM 59.0 °F 55.4 °F 88% 29.94 in 8.0 mi Calm Calm - N/A   Mostly Cloudy
5:53 AM 59.0 °F 55.9 °F 90% 29.94 in 4.0 mi Calm Calm - N/A   Overcast
6:53 AM 63.0 °F 60.1 °F 90% 29.95 in 5.0 mi NE 4.6 mph - N/A   Overcast
7:53 AM 64.0 °F 60.1 °F 87% 29.98 in 5.0 mi NNE 3.5 mph - N/A   Overcast
8:53 AM 64.9 °F 61.0 °F 87% 29.98 in 4.0 mi Calm Calm - N/A   Overcast
9:53 AM 68.0 °F 61.0 °F 78% 29.99 in 5.0 mi Variable 4.6 mph - N/A   Haze
10:53 AM 68.0 °F 61.0 °F 78% 30.01 in 4.0 mi SW 4.6 mph - N/A   Haze
11:53 AM 69.1 °F 61.0 °F 75% 30.00 in 4.0 mi SW 6.9 mph - N/A   Haze
12:53 PM 71.1 °F 61.0 °F 70% 29.99 in 5.0 mi South 8.1 mph - N/A   Haze
1:53 PM 68.0 °F 61.0 °F 78% 29.99 in 4.0 mi West 10.4 mph - N/A   Haze
2:46 PM 69.8 °F 60.8 °F 73% 29.97 in 5.0 mi WSW 5.8 mph - N/A   Haze
2:53 PM 69.1 °F 61.0 °F 75% 29.97 in 5.0 mi Variable 6.9 mph - N/A   Haze
3:53 PM 71.1 °F 60.1 °F 68% 29.95 in 8.0 mi SSW 6.9 mph - N/A   Clear
4:53 PM 71.1 °F 59.0 °F 66% 29.93 in 8.0 mi South 4.6 mph - N/A   Clear
5:53 PM 68.0 °F 60.1 °F 76% 29.91 in 9.0 mi SE 6.9 mph - N/A   Clear
6:53 PM 64.9 °F 60.1 °F 84% 29.91 in 9.0 mi SE 5.8 mph - N/A   Clear
7:53 PM 63.0 °F 59.0 °F 87% 29.92 in 7.0 mi ESE 4.6 mph - N/A   Scattered Clouds
8:53 PM 63.0 °F 60.1 °F 90% 29.93 in 8.0 mi ESE 5.8 mph - N/A   Clear
9:53 PM 63.0 °F 60.1 °F 90% 29.95 in 7.0 mi East 3.5 mph - N/A   Clear
10:53 PM 63.0 °F 60.1 °F 90% 29.96 in 8.0 mi East 5.8 mph - N/A   Clear
11:38 PM 64.4 °F 60.8 °F 88% 29.97 in 7.0 mi East 3.5 mph - N/A   Scattered Clouds
11:53 PM 64.0 °F 62.1 °F 93% 29.97 in 7.0 mi East 5.8 mph - N/A   Mostly Cloudy